Time,TemperatureF,DewpointF,PressureIn,WindDirection,WindDirectionDegrees,WindSpeedMPH,WindSpeedGustMPH,Humidity,HourlyPrecipIn,Conditions,Clouds,dailyrainin,SolarRadiationWatts/m^2,SoftwareType,DateUTC
2013-07-20 00:01:00,66.0,53.0,-100.00,West,260,3.0,9.0,62,0.00,,,0.39,0.000000,,2013-07-20 06:01:00,
2013-07-20 00:11:00,66.0,53.0,-100.00,West,260,3.0,9.0,62,0.00,,,0.39,0.000000,,2013-07-20 06:11:00,
2013-07-20 00:21:00,66.0,53.0,-100.00,West,260,3.0,9.0,62,0.00,,,0.39,0.000000,,2013-07-20 06:21:00,
2013-07-20 00:52:00,65.0,53.0,-100.00,NW,304,0.0,4.0,64,0.00,,,0.39,0.000000,,2013-07-20 06:52:00,
2013-07-20 01:01:00,65.0,53.0,-100.00,NW,304,0.0,4.0,64,0.00,,,0.39,0.000000,,2013-07-20 07:01:00,
2013-07-20 01:12:00,65.0,53.0,-100.00,NW,304,0.0,4.0,64,0.00,,,0.39,0.000000,,2013-07-20 07:12:00,
2013-07-20 01:22:00,65.0,53.0,-100.00,NW,304,0.0,4.0,64,0.00,,,0.39,0.000000,,2013-07-20 07:22:00,
2013-07-20 01:44:00,64.0,53.0,-100.00,NNW,329,2.0,7.0,67,0.00,,,0.39,0.000000,,2013-07-20 07:44:00,
2013-07-20 01:54:00,64.0,53.0,-100.00,NNW,329,2.0,7.0,67,0.00,,,0.39,0.000000,,2013-07-20 07:54:00,
2013-07-20 02:01:00,64.0,53.0,-100.00,NNW,329,2.0,7.0,67,0.00,,,0.39,0.000000,,2013-07-20 08:01:00,
2013-07-20 02:11:00,64.0,53.0,-100.00,NNW,329,2.0,7.0,67,0.00,,,0.39,0.000000,,2013-07-20 08:11:00,
2013-07-20 02:22:00,64.0,53.0,-100.00,NNW,329,2.0,7.0,67,0.00,,,0.39,0.000000,,2013-07-20 08:22:00,
2013-07-20 02:44:00,63.0,53.0,-100.00,NE,53,1.0,12.0,71,0.00,,,0.39,0.000000,,2013-07-20 08:44:00,
2013-07-20 02:52:00,63.0,53.0,-100.00,NE,53,1.0,12.0,71,0.00,,,0.39,0.000000,,2013-07-20 08:52:00,
2013-07-20 03:02:00,63.0,53.0,-100.00,NE,53,1.0,12.0,71,0.00,,,0.39,0.000000,,2013-07-20 09:02:00,
2013-07-20 03:11:00,63.0,53.0,-100.00,NE,53,1.0,12.0,71,0.00,,,0.39,0.000000,,2013-07-20 09:11:00,
2013-07-20 03:22:00,63.0,53.0,-100.00,NE,53,1.0,12.0,71,0.00,,,0.39,0.000000,,2013-07-20 09:22:00,
2013-07-20 03:53:00,63.0,53.0,-100.00,East,79,2.0,3.0,71,0.00,,,0.30,0.000000,,2013-07-20 09:53:00,
2013-07-20 04:01:00,63.0,53.0,-100.00,East,79,2.0,3.0,71,0.00,,,0.30,0.000000,,2013-07-20 10:01:00,
2013-07-20 04:11:00,63.0,53.0,-100.00,East,79,2.0,3.0,71,0.00,,,0.30,0.000000,,2013-07-20 10:11:00,
2013-07-20 04:21:00,63.0,53.0,-100.00,East,79,2.0,3.0,71,0.00,,,0.30,0.000000,,2013-07-20 10:21:00,
2013-07-20 04:42:00,60.0,53.0,-100.00,East,91,2.0,6.0,78,0.00,,,0.30,0.000000,,2013-07-20 10:42:00,
2013-07-20 04:52:00,60.0,53.0,-100.00,East,91,2.0,6.0,78,0.00,,,0.30,0.000000,,2013-07-20 10:52:00,
2013-07-20 05:01:00,60.0,53.0,-100.00,East,91,2.0,6.0,78,0.00,,,0.30,0.000000,,2013-07-20 11:01:00,
2013-07-20 05:11:00,60.0,53.0,-100.00,East,91,2.0,6.0,78,0.00,,,0.30,0.000000,,2013-07-20 11:11:00,
2013-07-20 05:22:00,60.0,53.0,-100.00,East,91,2.0,6.0,78,0.00,,,0.30,0.000000,,2013-07-20 11:22:00,
2013-07-20 05:43:00,55.0,49.0,-100.00,NNW,333,6.0,14.0,81,0.29,,,0.47,0.000000,,2013-07-20 11:43:00,
2013-07-20 05:52:00,55.0,49.0,-100.00,NNW,333,6.0,14.0,81,0.29,,,0.47,0.000000,,2013-07-20 11:52:00,
2013-07-20 06:01:00,55.0,49.0,-100.00,NNW,333,6.0,14.0,81,0.29,,,0.47,0.000000,,2013-07-20 12:01:00,
2013-07-20 06:11:00,55.0,49.0,-100.00,NNW,333,6.0,14.0,81,0.29,,,0.47,0.000000,,2013-07-20 12:11:00,
2013-07-20 06:22:00,55.0,49.0,-100.00,NNW,333,6.0,14.0,81,0.29,,,0.47,0.000000,,2013-07-20 12:22:00,
2013-07-20 06:52:00,58.0,54.0,-100.00,NNW,340,4.0,10.0,87,0.08,,,0.49,4.000000,,2013-07-20 12:52:00,
2013-07-20 07:01:00,58.0,54.0,-100.00,NNW,340,4.0,10.0,87,0.08,,,0.49,4.000000,,2013-07-20 13:01:00,
2013-07-20 07:11:00,58.0,54.0,-100.00,NNW,340,4.0,10.0,87,0.08,,,0.49,4.000000,,2013-07-20 13:11:00,
2013-07-20 07:22:00,58.0,54.0,-100.00,NNW,340,4.0,10.0,87,0.08,,,0.49,4.000000,,2013-07-20 13:22:00,
2013-07-20 07:43:00,59.0,55.0,-100.00,NNW,348,0.0,5.0,86,0.00,,,0.49,54.000000,,2013-07-20 13:43:00,
2013-07-20 07:53:00,59.0,55.0,-100.00,NNW,348,0.0,5.0,86,0.00,,,0.49,54.000000,,2013-07-20 13:53:00,
2013-07-20 08:02:00,59.0,55.0,-100.00,NNW,348,0.0,5.0,86,0.00,,,0.49,54.000000,,2013-07-20 14:02:00,
2013-07-20 08:11:00,59.0,55.0,-100.00,NNW,348,0.0,5.0,86,0.00,,,0.49,54.000000,,2013-07-20 14:11:00,
2013-07-20 08:22:00,59.0,55.0,-100.00,NNW,348,0.0,5.0,86,0.00,,,0.49,54.000000,,2013-07-20 14:22:00,
2013-07-20 09:01:00,70.0,55.0,-100.00,SSE,151,0.0,7.0,58,0.00,,,0.40,285.000000,,2013-07-20 15:01:00,
2013-07-20 09:11:00,70.0,55.0,-100.00,SSE,151,0.0,7.0,58,0.00,,,0.40,285.000000,,2013-07-20 15:11:00,
2013-07-20 09:22:00,70.0,55.0,-100.00,SSE,151,0.0,7.0,58,0.00,,,0.40,285.000000,,2013-07-20 15:22:00,
2013-07-20 09:53:00,74.0,53.0,-100.00,South,191,2.0,4.0,48,0.00,,,-99.99,544.000000,,2013-07-20 15:53:00,
2013-07-20 10:01:00,74.0,53.0,-100.00,South,191,2.0,4.0,48,0.00,,,-99.99,544.000000,,2013-07-20 16:01:00,
2013-07-20 10:11:00,74.0,53.0,-100.00,South,191,2.0,4.0,48,0.00,,,-99.99,544.000000,,2013-07-20 16:11:00,
2013-07-20 10:22:00,74.0,53.0,-100.00,South,191,2.0,4.0,48,0.00,,,-99.99,544.000000,,2013-07-20 16:22:00,
2013-07-20 10:43:00,75.0,56.0,-100.00,SSW,212,4.0,7.0,51,0.00,,,0.37,738.000000,,2013-07-20 16:43:00,
2013-07-20 10:52:00,75.0,56.0,-100.00,SSW,212,4.0,7.0,51,0.00,,,0.37,738.000000,,2013-07-20 16:52:00,
2013-07-20 11:02:00,75.0,56.0,-100.00,SSW,212,4.0,7.0,51,0.00,,,0.37,738.000000,,2013-07-20 17:02:00,
2013-07-20 11:11:00,75.0,56.0,-100.00,SSW,212,4.0,7.0,51,0.00,,,0.37,738.000000,,2013-07-20 17:11:00,
2013-07-20 11:22:00,75.0,56.0,-100.00,SSW,212,4.0,7.0,51,0.00,,,0.37,738.000000,,2013-07-20 17:22:00,
2013-07-20 11:43:00,78.0,56.0,-100.00,ESE,121,4.0,9.0,47,0.00,,,0.37,934.000000,,2013-07-20 17:43:00,
2013-07-20 11:53:00,78.0,56.0,-100.00,ESE,121,4.0,9.0,47,0.00,,,0.37,934.000000,,2013-07-20 17:53:00,
2013-07-20 12:01:00,78.0,56.0,-100.00,ESE,121,4.0,9.0,47,0.00,,,0.37,934.000000,,2013-07-20 18:01:00,
2013-07-20 12:11:00,78.0,56.0,-100.00,ESE,121,4.0,9.0,47,0.00,,,0.37,934.000000,,2013-07-20 18:11:00,
2013-07-20 12:23:00,78.0,56.0,-100.00,ESE,121,4.0,9.0,47,0.00,,,0.37,934.000000,,2013-07-20 18:23:00,
2013-07-20 12:47:00,83.0,51.0,-100.00,South,186,4.0,9.0,33,0.00,,,0.37,1090.000000,,2013-07-20 18:47:00,
2013-07-20 12:59:00,83.0,51.0,-100.00,South,186,4.0,9.0,33,0.00,,,0.37,1090.000000,,2013-07-20 18:59:00,
2013-07-20 13:04:00,83.0,51.0,-100.00,South,186,4.0,9.0,33,0.00,,,0.37,1090.000000,,2013-07-20 19:04:00,
2013-07-20 13:14:00,83.0,51.0,-100.00,South,186,4.0,9.0,33,0.00,,,0.37,1090.000000,,2013-07-20 19:14:00,
2013-07-20 13:44:00,82.0,58.0,-100.00,SSE,168,5.0,15.0,44,0.00,,,0.37,1173.000000,,2013-07-20 19:44:00,
2013-07-20 14:47:00,74.0,60.0,-100.00,East,90,5.0,15.0,62,-99.99,,,0.37,648.000000,,2013-07-20 20:47:00,
2013-07-20 14:57:00,74.0,60.0,-100.00,East,90,5.0,15.0,62,-99.99,,,0.37,648.000000,,2013-07-20 20:57:00,
2013-07-20 15:13:00,74.0,60.0,-100.00,East,90,5.0,15.0,62,-99.99,,,0.37,648.000000,,2013-07-20 21:13:00,
2013-07-20 15:56:00,69.0,55.0,-100.00,East,90,4.0,10.0,62,0.00,,,0.37,407.000000,,2013-07-20 21:56:00,
2013-07-20 16:05:00,69.0,55.0,-100.00,East,90,4.0,10.0,62,0.00,,,0.37,407.000000,,2013-07-20 22:05:00,
2013-07-20 16:15:00,69.0,55.0,-100.00,East,90,4.0,10.0,62,0.00,,,0.37,407.000000,,2013-07-20 22:15:00,
2013-07-20 17:46:00,74.0,54.0,-100.00,NE,49,3.0,7.0,50,-99.99,,,0.43,542.000000,,2013-07-20 23:46:00,
2013-07-20 17:56:00,74.0,54.0,-100.00,NE,49,3.0,7.0,50,-99.99,,,0.43,542.000000,,2013-07-20 23:56:00,
2013-07-20 18:06:00,74.0,54.0,-100.00,NE,49,3.0,7.0,50,-99.99,,,0.43,542.000000,,2013-07-21 00:06:00,
2013-07-20 18:15:00,74.0,54.0,-100.00,NE,49,3.0,7.0,50,-99.99,,,0.43,542.000000,,2013-07-21 00:15:00,
2013-07-20 18:22:00,74.0,54.0,-100.00,NE,49,3.0,7.0,50,-99.99,,,0.43,542.000000,,2013-07-21 00:22:00,
2013-07-20 18:24:00,75.0,48.0,-100.00,NE,38,3.0,6.0,39,0.00,,,0.43,478.000000,,2013-07-21 00:24:00,
2013-07-20 18:56:00,75.0,48.0,-100.00,NE,38,3.0,6.0,39,0.00,,,0.43,478.000000,,2013-07-21 00:56:00,
2013-07-20 19:06:00,75.0,48.0,-100.00,NE,38,3.0,6.0,39,0.00,,,0.43,478.000000,,2013-07-21 01:06:00,
2013-07-20 19:12:00,75.0,48.0,-100.00,NE,38,3.0,6.0,39,0.00,,,0.43,478.000000,,2013-07-21 01:12:00,
2013-07-20 19:24:00,69.0,55.0,-100.00,ENE,70,2.0,6.0,61,0.00,,,0.43,77.000000,,2013-07-21 01:24:00,
2013-07-20 19:49:00,-999.0,-99.9,-100.00,ENE,70,2.0,6.0,-999,-99.99,,,-99.99,77.000000,,2013-07-21 01:49:00,
2013-07-20 19:59:00,69.0,55.0,-100.00,ENE,70,2.0,6.0,61,0.00,,,0.43,77.000000,,2013-07-21 01:59:00,
2013-07-20 20:04:00,69.0,55.0,-100.00,ENE,70,2.0,6.0,61,0.00,,,0.43,77.000000,,2013-07-21 02:04:00,
2013-07-20 20:15:00,69.0,55.0,-100.00,ENE,70,2.0,6.0,61,0.00,,,0.43,77.000000,,2013-07-21 02:15:00,
2013-07-20 20:24:00,67.0,46.0,-100.00,East,100,1.0,5.0,47,0.00,,,0.43,20.000000,,2013-07-21 02:24:00,
2013-07-20 20:46:00,67.0,46.0,-100.00,East,100,1.0,5.0,47,0.00,,,0.43,20.000000,,2013-07-21 02:46:00,
2013-07-20 20:58:00,67.0,46.0,-100.00,East,100,1.0,5.0,47,0.00,,,0.43,20.000000,,2013-07-21 02:58:00,
2013-07-20 21:04:00,67.0,46.0,-100.00,East,100,1.0,5.0,47,0.00,,,0.43,20.000000,,2013-07-21 03:04:00,
2013-07-20 21:14:00,67.0,46.0,-100.00,East,100,1.0,5.0,47,0.00,,,0.43,20.000000,,2013-07-21 03:14:00,
2013-07-20 22:00:00,63.0,59.0,-100.00,East,100,4.0,11.0,87,0.00,,,-99.99,1.000000,,2013-07-21 04:00:00,
2013-07-20 22:01:00,63.0,59.0,-100.00,East,100,4.0,11.0,87,0.00,,,-99.99,1.000000,,2013-07-21 04:01:00,
2013-07-20 22:11:00,63.0,59.0,-100.00,East,100,4.0,11.0,87,0.00,,,-99.99,1.000000,,2013-07-21 04:11:00,
2013-07-20 22:22:00,63.0,59.0,-100.00,East,100,4.0,11.0,87,0.00,,,-99.99,1.000000,,2013-07-21 04:22:00,
2013-07-20 22:43:00,61.0,58.0,-100.00,ENE,77,3.0,11.0,89,0.00,,,0.43,0.000000,,2013-07-21 04:43:00,
2013-07-20 22:53:00,61.0,58.0,-100.00,ENE,77,3.0,11.0,89,0.00,,,0.43,0.000000,,2013-07-21 04:53:00,
2013-07-20 23:02:00,61.0,58.0,-100.00,ENE,77,3.0,11.0,89,0.00,,,0.43,0.000000,,2013-07-21 05:02:00,
2013-07-20 23:11:00,61.0,58.0,-100.00,ENE,77,3.0,11.0,89,0.00,,,0.43,0.000000,,2013-07-21 05:11:00,
2013-07-20 23:22:00,61.0,58.0,-100.00,ENE,77,3.0,11.0,89,0.00,,,0.43,0.000000,,2013-07-21 05:22:00,
2013-07-20 23:42:00,59.0,58.0,-100.00,WNW,292,1.0,8.0,96,0.01,,,0.44,0.000000,,2013-07-21 05:42:00,
2013-07-20 23:52:00,59.0,58.0,-100.00,WNW,292,1.0,8.0,96,0.01,,,0.44,0.000000,,2013-07-21 05:52:00,